Location: Vancouver
(49.2500°N, 123.1330°W)
Time: 08:45:46
(UTC-07:00)

Transit 2A Rocket - Visible Passes

Search period start: 24 May 2016 00:00
Search period end: 03 June 2016 00:00
Orbit: 585 x 920 km, 66.7° (Epoch: 24 May)

Date Brightness Start Highest point End Pass type
(mag) Time Alt. Az. Time Alt. Az. Time Alt. Az.
24 May 8.1 00:38:02 10° WNW 00:41:46 18° NNW 00:45:42 10° NNE visible
24 May 8.3 02:23:39 10° NNW 02:26:51 15° N 02:30:09 10° NE visible
24 May 7.8 04:06:36 10° NNW 04:11:37 27° NNE 04:16:44 10° E visible
24 May 5.7 22:09:52 10° SW 22:15:04 65° NW 22:20:51 10° NNE visible
24 May 7.9 23:54:43 10° WNW 23:58:54 21° NNW 00:03:21 10° NNE visible
25 May 8.4 01:40:48 10° NNW 01:43:51 14° N 01:47:00 10° NNE visible
25 May 8.1 03:24:20 10° NNW 03:28:50 21° NNE 03:33:25 10° ENE visible
25 May 7.5 23:11:31 10° W 23:16:07 27° NNW 23:21:04 10° NNE visible
26 May 8.4 00:57:41 10° NW 01:00:51 15° N 01:04:08 10° NNE visible
26 May 8.3 02:41:59 10° NNW 02:45:57 18° NNE 02:50:01 10° ENE visible
26 May 6.9 04:24:28 10° NNW 04:30:14 42° NE 04:36:02 10° ESE visible
26 May 7.0 22:28:29 10° WSW 22:33:26 36° NW 22:38:48 10° NNE visible
27 May 8.4 00:14:23 10° NW 00:17:53 16° NNW 00:21:31 10° NNE visible
27 May 8.5 01:59:31 10° NNW 02:03:00 16° NNE 02:06:35 10° NE visible
27 May 7.4 03:42:14 10° NNW 03:47:36 32° NE 03:53:01 10° E visible
27 May 6.3 21:45:41 10° WSW 21:50:51 50° NW 21:56:32 10° NNE visible
27 May 8.2 23:31:02 10° WNW 23:34:58 19° NNW 23:39:05 10° NNE visible
28 May 8.5 01:16:50 10° NNW 01:20:01 15° N 01:23:16 10° NE visible
28 May 7.8 02:59:58 10° NNW 03:04:52 25° NNE 03:09:49 10° E visible
28 May 7.9 22:47:44 10° W 22:52:06 23° NNW 22:56:45 10° NNE visible
29 May 8.5 00:33:54 10° NW 00:37:01 14° N 00:40:12 10° NNE visible
29 May 8.1 02:17:41 10° NNW 02:22:02 20° NNE 02:26:29 10° ENE visible
29 May 6.4 04:00:07 10° NNW 04:06:05 53° NE 04:12:04 10° ESE visible
29 May 7.5 22:04:35 10° W 22:09:21 29° NW 22:14:29 10° NNE visible
29 May 8.4 23:50:43 10° NW 23:54:01 15° N 23:57:25 10° NNE visible
30 May 8.3 01:35:18 10° NNW 01:39:08 17° NNE 01:43:03 10° ENE visible
30 May 7.0 03:17:52 10° NNW 03:23:31 38° NE 03:29:13 10° ESE visible
30 May 8.3 23:07:23 10° WNW 23:11:03 17° NNW 23:14:52 10° NNE visible
31 May 8.3 00:52:45 10° NNW 00:56:10 15° N 00:59:39 10° NE visible
31 May 7.5 02:35:37 10° NNW 02:40:51 29° NE 02:46:09 10° E visible
31 May 5.4 04:18:06 10° NW 04:24:16 86° SW 04:30:22 10° SSE visible
31 May 8.1 22:24:02 10° WNW 22:28:09 20° NNW 22:32:29 10° NNE visible
01 Jun 8.3 00:10:00 10° NNW 00:13:10 14° N 00:16:25 10° NE visible
01 Jun 7.8 01:53:20 10° NNW 01:58:05 23° NNE 02:02:54 10° E visible
01 Jun 5.8 03:35:47 10° NNW 03:41:53 67° NE 03:47:58 10° SE visible
01 Jun 8.3 23:26:58 10° NW 23:30:10 15° N 23:33:26 10° NNE visible
02 Jun 8.1 01:11:01 10° NNW 01:15:14 19° NNE 01:19:31 10° ENE visible
02 Jun 6.5 02:53:30 10° NNW 02:59:24 48° NE 03:05:17 10° ESE visible
02 Jun 8.2 22:43:43 10° NW 22:47:10 16° NNW 22:50:44 10° NNE visible
